Location: Rotheul
(50.2849°N, 11.2349°E)
Time: 14:13:06
(UTC+02:00)

ISS - Pass Details

Date: 21 May 2018
Orbit: 402 x 407 km, 51.6° (Epoch: 25 May)

Event Time Altitude Azimuth Distance (km) Brightness Sun altitude
Rises 00:43:19 0° 261° (W) 2,315 0.0 -19.3°
Reaches altitude 10° 00:45:24 10° 263° (W) 1,457 -1.0 -19.4°
Maximum altitude 00:48:40 77° 350° (N) 419 -3.8 -19.4°
Drops below altitude 10° 00:51:56 10° 77° (ENE) 1,458 -0.9 -19.5°
Sets 00:54:01 0° 79° (ENE) 2,318 0.1 -19.5°
